Time,TemperatureF,DewpointF,PressureIn,WindDirection,WindDirectionDegrees,WindSpeedMPH,WindSpeedGustMPH,Humidity,HourlyPrecipIn,Conditions,Clouds,dailyrainin,SoftwareType,DateUTC
2013-03-01 00:00:00,21.7,16.2,30.25,NNE,32,3.0,15.0,79,0.00,,---,0.00,VWS V14.01,2013-03-01 06:00:00,
2013-03-01 00:02:00,20.7,15.2,30.27,NNE,25,1.0,5.0,79,0.00,,---,0.00,VWS V14.01,2013-03-01 06:02:00,
2013-03-01 00:07:00,20.7,15.2,30.27,NNE,23,4.0,8.0,79,0.00,,---,0.00,VWS V14.01,2013-03-01 06:07:00,
2013-03-01 00:10:00,21.7,15.9,30.26,ENE,70,3.0,12.0,78,0.00,,---,0.00,VWS V14.01,2013-03-01 06:10:00,
2013-03-01 00:13:00,20.6,15.1,30.27,NNE,23,2.0,6.0,79,0.00,,---,0.00,VWS V14.01,2013-03-01 06:13:00,
2013-03-01 00:18:00,20.6,15.1,30.27,NNE,18,2.0,8.0,79,0.00,,---,0.00,VWS V14.01,2013-03-01 06:18:00,
2013-03-01 00:20:00,21.6,16.1,30.26,NNE,25,5.0,7.0,79,0.00,,---,0.00,VWS V14.01,2013-03-01 06:20:00,
2013-03-01 00:23:00,20.7,15.5,30.27,NE,46,10.0,10.0,80,0.00,,---,0.00,VWS V14.01,2013-03-01 06:23:00,
2013-03-01 00:28:00,20.7,15.2,30.27,ENE,58,7.0,10.0,79,0.00,,---,0.00,VWS V14.01,2013-03-01 06:28:00,
2013-03-01 00:30:00,21.5,16.0,30.26,NNE,14,1.0,13.0,79,0.00,,---,0.00,VWS V14.01,2013-03-01 06:30:00,
2013-03-01 00:33:00,20.7,15.2,30.27,NNE,32,2.0,6.0,79,0.00,,---,0.00,VWS V14.01,2013-03-01 06:33:00,
2013-03-01 00:38:00,20.7,15.5,30.28,NNE,26,3.0,10.0,80,0.00,,---,0.00,VWS V14.01,2013-03-01 06:38:00,
2013-03-01 00:40:00,21.4,15.9,30.27,NNE,20,1.0,6.0,79,0.00,,---,0.00,VWS V14.01,2013-03-01 06:40:00,
2013-03-01 00:44:00,20.7,15.5,30.28,NE,43,1.0,8.0,80,0.00,,---,0.00,VWS V14.01,2013-03-01 06:44:00,
2013-03-01 00:49:00,20.7,15.5,30.27,ENE,68,3.0,8.0,80,0.00,,---,0.00,VWS V14.01,2013-03-01 06:49:00,
2013-03-01 00:50:00,21.2,15.7,30.27,North,356,5.0,5.0,79,0.00,,---,0.00,VWS V14.01,2013-03-01 06:50:00,
2013-03-01 00:54:00,20.7,15.5,30.28,NE,38,2.0,8.0,80,0.00,,---,0.00,VWS V14.01,2013-03-01 06:54:00,
2013-03-01 00:59:00,20.7,15.5,30.28,NE,36,4.0,10.0,80,0.00,,---,0.00,VWS V14.01,2013-03-01 06:59:00,
2013-03-01 01:00:00,21.2,15.7,30.26,NE,36,3.0,12.0,79,0.00,,---,0.00,VWS V14.01,2013-03-01 07:00:00,
2013-03-01 01:04:00,20.8,15.6,30.28,East,88,7.0,15.0,80,0.00,,---,0.00,VWS V14.01,2013-03-01 07:04:00,
2013-03-01 01:09:00,20.8,15.6,30.28,East,84,13.0,15.0,80,0.00,,---,0.00,VWS V14.01,2013-03-01 07:09:00,
2013-03-01 01:10:00,21.0,15.5,30.27,NE,50,10.0,16.0,79,0.00,,---,0.00,VWS V14.01,2013-03-01 07:10:00,
2013-03-01 01:14:00,20.9,15.7,30.28,ESE,113,13.0,13.0,80,0.00,,---,0.00,VWS V14.01,2013-03-01 07:14:00,
2013-03-01 01:19:00,20.9,15.7,30.28,NE,55,8.0,15.0,80,0.00,,---,0.00,VWS V14.01,2013-03-01 07:19:00,
2013-03-01 01:20:00,20.9,15.1,30.27,NE,36,6.0,16.0,78,0.00,,---,0.00,VWS V14.01,2013-03-01 07:20:00,
2013-03-01 01:24:00,21.0,15.8,30.28,NE,39,9.0,18.0,80,0.00,,---,0.00,VWS V14.01,2013-03-01 07:24:00,
2013-03-01 01:29:00,21.0,15.5,30.29,ESE,105,10.0,19.0,79,0.00,,---,0.00,VWS V14.01,2013-03-01 07:29:00,
2013-03-01 01:30:00,20.8,15.3,30.27,North,4,5.0,14.0,79,0.00,,---,0.00,VWS V14.01,2013-03-01 07:30:00,
2013-03-01 01:34:00,21.0,15.5,30.29,NNE,30,10.0,15.0,79,0.00,,---,0.00,VWS V14.01,2013-03-01 07:34:00,
2013-03-01 01:40:00,20.9,15.4,30.29,East,81,10.0,21.0,79,0.00,,---,0.00,VWS V14.01,2013-03-01 07:40:00,
2013-03-01 01:45:00,20.9,15.1,30.29,SE,127,11.0,18.0,78,0.00,,---,0.00,VWS V14.01,2013-03-01 07:45:00,
2013-03-01 01:50:00,20.9,14.8,30.29,ENE,57,7.0,18.0,77,0.00,,---,0.00,VWS V14.01,2013-03-01 07:50:00,
2013-03-01 01:55:00,20.9,14.8,30.29,NE,41,7.0,15.0,77,0.00,,---,0.00,VWS V14.01,2013-03-01 07:55:00,
2013-03-01 02:00:00,20.9,15.1,30.29,East,86,7.0,15.0,78,0.00,,---,0.00,VWS V14.01,2013-03-01 08:00:00,
2013-03-01 02:05:00,20.9,15.1,30.29,NE,46,6.0,11.0,78,0.00,,---,0.00,VWS V14.01,2013-03-01 08:05:00,
2013-03-01 02:10:00,20.8,15.0,30.29,East,81,6.0,8.0,78,0.00,,---,0.00,VWS V14.01,2013-03-01 08:10:00,
2013-03-01 02:15:00,20.8,15.0,30.29,East,81,9.0,16.0,78,0.00,,---,0.00,VWS V14.01,2013-03-01 08:15:00,
2013-03-01 02:20:00,20.6,15.1,30.27,ENE,60,8.0,11.0,79,0.00,,---,0.00,VWS V14.01,2013-03-01 08:20:00,
2013-03-01 02:21:00,20.8,15.0,30.29,NE,56,9.0,12.0,78,0.00,,---,0.00,VWS V14.01,2013-03-01 08:21:00,
2013-03-01 02:26:00,20.8,14.7,30.29,NE,36,13.0,16.0,77,0.00,,---,0.00,VWS V14.01,2013-03-01 08:26:00,
2013-03-01 02:30:00,20.7,15.2,30.27,East,84,3.0,10.0,79,0.00,,---,0.00,VWS V14.01,2013-03-01 08:30:00,
2013-03-01 02:31:00,20.9,14.8,30.29,NE,47,8.0,13.0,77,0.00,,---,0.00,VWS V14.01,2013-03-01 08:31:00,
2013-03-01 02:36:00,20.9,14.8,30.29,NNE,29,8.0,16.0,77,0.00,,---,0.00,VWS V14.01,2013-03-01 08:36:00,
2013-03-01 02:40:00,20.7,15.5,30.28,NE,49,3.0,10.0,80,0.00,,---,0.00,VWS V14.01,2013-03-01 08:40:00,
2013-03-01 02:41:00,20.8,14.7,30.29,NE,49,7.0,12.0,77,0.00,,---,0.00,VWS V14.01,2013-03-01 08:41:00,
2013-03-01 02:46:00,20.8,14.7,30.29,ENE,63,6.0,17.0,77,0.00,,---,0.00,VWS V14.01,2013-03-01 08:46:00,
2013-03-01 02:50:00,20.7,15.5,30.28,NE,41,4.0,8.0,80,0.00,,---,0.00,VWS V14.01,2013-03-01 08:50:00,
2013-03-01 02:52:00,20.8,14.7,30.29,East,90,6.0,11.0,77,0.00,,---,0.00,VWS V14.01,2013-03-01 08:52:00,
2013-03-01 02:57:00,20.7,14.9,30.29,NNE,30,6.0,16.0,78,0.00,,---,0.00,VWS V14.01,2013-03-01 08:57:00,
2013-03-01 03:00:00,20.7,15.5,30.28,NNE,13,6.0,10.0,80,0.00,,---,0.00,VWS V14.01,2013-03-01 09:00:00,
2013-03-01 03:02:00,20.6,14.8,30.29,East,79,7.0,11.0,78,0.00,,---,0.00,VWS V14.01,2013-03-01 09:02:00,
2013-03-01 03:07:00,20.7,14.6,30.29,East,80,12.0,18.0,77,0.00,,---,0.00,VWS V14.01,2013-03-01 09:07:00,
2013-03-01 03:10:00,20.9,15.7,30.28,NE,36,3.0,15.0,80,0.00,,---,0.00,VWS V14.01,2013-03-01 09:10:00,
2013-03-01 03:12:00,20.7,14.6,30.29,NE,47,8.0,12.0,77,0.00,,---,0.00,VWS V14.01,2013-03-01 09:12:00,
2013-03-01 03:17:00,20.7,14.9,30.29,NE,34,8.0,12.0,78,0.00,,---,0.00,VWS V14.01,2013-03-01 09:17:00,
2013-03-01 03:20:00,20.9,15.7,30.28,East,94,8.0,15.0,80,0.00,,---,0.00,VWS V14.01,2013-03-01 09:20:00,
2013-03-01 03:23:00,20.7,14.6,30.29,NNE,32,9.0,19.0,77,0.00,,---,0.00,VWS V14.01,2013-03-01 09:23:00,
2013-03-01 03:28:00,20.7,14.9,30.29,NE,53,7.0,19.0,78,0.00,,---,0.00,VWS V14.01,2013-03-01 09:28:00,
2013-03-01 03:30:00,21.0,15.5,30.29,NNE,32,6.0,19.0,79,0.00,,---,0.00,VWS V14.01,2013-03-01 09:30:00,
2013-03-01 03:33:00,20.7,14.6,30.29,ENE,63,8.0,14.0,77,0.00,,---,0.00,VWS V14.01,2013-03-01 09:33:00,
2013-03-01 03:38:00,20.6,14.8,30.29,ENE,78,6.0,14.0,78,0.00,,---,0.00,VWS V14.01,2013-03-01 09:38:00,
2013-03-01 03:40:00,20.9,15.4,30.29,ENE,59,12.0,21.0,79,0.00,,---,0.00,VWS V14.01,2013-03-01 09:40:00,
2013-03-01 03:43:00,20.6,14.6,30.29,ENE,64,10.0,14.0,77,0.00,,---,0.00,VWS V14.01,2013-03-01 09:43:00,
2013-03-01 03:48:00,20.6,14.8,30.29,NE,40,7.0,14.0,78,0.00,,---,0.00,VWS V14.01,2013-03-01 09:48:00,
2013-03-01 03:50:00,20.9,14.8,30.29,NNE,16,11.0,18.0,77,0.00,,---,0.00,VWS V14.01,2013-03-01 09:50:00,
2013-03-01 03:53:00,20.5,14.7,30.29,NE,46,5.0,11.0,78,0.00,,---,0.00,VWS V14.01,2013-03-01 09:53:00,
2013-03-01 03:58:00,20.5,14.7,30.30,East,92,7.0,15.0,78,0.00,,---,0.00,VWS V14.01,2013-03-01 09:58:00,
2013-03-01 04:00:00,20.9,15.1,30.29,East,86,7.0,15.0,78,0.00,,---,0.00,VWS V14.01,2013-03-01 10:00:00,
2013-03-01 04:04:00,20.5,14.7,30.30,ENE,67,7.0,11.0,78,0.00,,---,0.00,VWS V14.01,2013-03-01 10:04:00,
2013-03-01 04:09:00,20.4,14.6,30.30,ENE,63,5.0,11.0,78,0.00,,---,0.00,VWS V14.01,2013-03-01 10:09:00,
2013-03-01 04:10:00,20.8,15.0,30.29,NNE,14,6.0,11.0,78,0.00,,---,0.00,VWS V14.01,2013-03-01 10:10:00,
2013-03-01 04:14:00,20.3,14.8,30.30,ENE,71,6.0,8.0,79,0.00,,---,0.00,VWS V14.01,2013-03-01 10:14:00,
2013-03-01 04:19:00,20.3,14.8,30.30,NNE,29,7.0,8.0,79,0.00,,---,0.00,VWS V14.01,2013-03-01 10:19:00,
2013-03-01 04:20:00,20.8,15.0,30.29,NNE,32,7.0,16.0,78,0.00,,---,0.00,VWS V14.01,2013-03-01 10:20:00,
2013-03-01 04:24:00,20.3,14.8,30.30,NE,39,3.0,8.0,79,0.00,,---,0.00,VWS V14.01,2013-03-01 10:24:00,
2013-03-01 04:29:00,20.3,14.8,30.30,NE,39,4.0,10.0,79,0.00,,---,0.00,VWS V14.01,2013-03-01 10:29:00,
2013-03-01 04:30:00,20.9,14.8,30.29,ENE,65,9.0,18.0,77,0.00,,---,0.00,VWS V14.01,2013-03-01 10:30:00,
2013-03-01 04:34:00,20.2,14.7,30.30,NE,46,7.0,10.0,79,0.00,,---,0.00,VWS V14.01,2013-03-01 10:34:00,
2013-03-01 04:40:00,20.1,14.9,30.31,ENE,72,5.0,10.0,80,0.00,,---,0.00,VWS V14.01,2013-03-01 10:40:00,
2013-03-01 04:45:00,20.1,14.9,30.31,NE,36,5.0,8.0,80,0.00,,---,0.00,VWS V14.01,2013-03-01 10:45:00,
2013-03-01 04:50:00,20.1,14.9,30.31,ENE,59,3.0,8.0,80,0.00,,---,0.00,VWS V14.01,2013-03-01 10:50:00,
2013-03-01 04:55:00,20.1,14.9,30.31,NE,39,5.0,7.0,80,0.00,,---,0.00,VWS V14.01,2013-03-01 10:55:00,
2013-03-01 05:00:00,20.1,14.9,30.31,NE,41,4.0,5.0,80,0.00,,---,0.00,VWS V14.01,2013-03-01 11:00:00,
2013-03-01 05:06:00,20.1,14.9,30.31,NE,53,4.0,7.0,80,0.00,,---,0.00,VWS V14.01,2013-03-01 11:06:00,
2013-03-01 05:10:00,20.7,14.6,30.29,ENE,69,8.0,18.0,77,0.00,,---,0.00,VWS V14.01,2013-03-01 11:10:00,
2013-03-01 05:11:00,20.1,14.9,30.31,ENE,67,4.0,6.0,80,0.00,,---,0.00,VWS V14.01,2013-03-01 11:11:00,
2013-03-01 05:16:00,20.0,14.8,30.31,ENE,71,5.0,6.0,80,0.00,,---,0.00,VWS V14.01,2013-03-01 11:16:00,
2013-03-01 05:20:00,20.7,14.6,30.29,NE,47,6.0,13.0,77,0.00,,---,0.00,VWS V14.01,2013-03-01 11:20:00,
2013-03-01 05:21:00,19.9,14.7,30.31,ENE,68,3.0,5.0,80,0.00,,---,0.00,VWS V14.01,2013-03-01 11:21:00,
2013-03-01 05:26:00,19.8,14.9,30.32,ENE,58,2.0,5.0,81,0.00,,---,0.00,VWS V14.01,2013-03-01 11:26:00,
2013-03-01 05:30:00,20.7,14.6,30.29,ENE,67,7.0,19.0,77,0.00,,---,0.00,VWS V14.01,2013-03-01 11:30:00,
2013-03-01 05:31:00,19.8,14.9,30.32,ENE,72,0.0,1.0,81,0.00,,---,0.00,VWS V14.01,2013-03-01 11:31:00,
2013-03-01 05:36:00,19.8,14.9,30.32,ENE,71,0.0,1.0,81,0.00,,---,0.00,VWS V14.01,2013-03-01 11:36:00,
2013-03-01 05:40:00,20.6,14.8,30.29,NE,39,7.0,15.0,78,0.00,,---,0.00,VWS V14.01,2013-03-01 11:40:00,
2013-03-01 05:41:00,19.8,14.9,30.32,ENE,71,0.0,0.0,81,0.00,,---,0.00,VWS V14.01,2013-03-01 11:41:00,
2013-03-01 05:46:00,19.8,14.9,30.32,ENE,71,0.0,0.0,81,0.00,,---,0.00,VWS V14.01,2013-03-01 11:46:00,
2013-03-01 05:50:00,20.6,14.8,30.29,ENE,58,7.0,14.0,78,0.00,,---,0.00,VWS V14.01,2013-03-01 11:50:00,
2013-03-01 05:51:00,19.8,14.9,30.32,ENE,70,0.0,0.0,81,0.00,,---,0.00,VWS V14.01,2013-03-01 11:51:00,
2013-03-01 05:57:00,19.8,14.9,30.32,ENE,71,0.0,0.0,81,0.00,,---,0.00,VWS V14.01,2013-03-01 11:57:00,
2013-03-01 06:00:00,20.5,14.7,30.30,East,94,11.0,15.0,78,0.00,,---,0.00,VWS V14.01,2013-03-01 12:00:00,
2013-03-01 06:02:00,19.8,14.9,30.32,ENE,71,0.0,0.0,81,0.00,,---,0.00,VWS V14.01,2013-03-01 12:02:00,
2013-03-01 06:07:00,19.7,15.1,30.32,ENE,71,0.0,0.0,82,0.00,,---,0.00,VWS V14.01,2013-03-01 12:07:00,
2013-03-01 06:10:00,20.4,14.6,30.30,ESE,105,6.0,11.0,78,0.00,,---,0.00,VWS V14.01,2013-03-01 12:10:00,
2013-03-01 06:12:00,19.7,15.1,30.32,ENE,71,0.0,0.0,82,0.00,,---,0.00,VWS V14.01,2013-03-01 12:12:00,
2013-03-01 06:17:00,19.7,15.1,30.33,ENE,71,0.0,0.0,82,0.00,,---,0.00,VWS V14.01,2013-03-01 12:17:00,
2013-03-01 06:20:00,20.2,14.7,30.30,ENE,59,5.0,10.0,79,0.00,,---,0.00,VWS V14.01,2013-03-01 12:20:00,
2013-03-01 06:22:00,19.7,14.8,30.33,ENE,71,0.0,0.0,81,0.00,,---,0.00,VWS V14.01,2013-03-01 12:22:00,
2013-03-01 06:27:00,19.8,14.9,30.33,NNE,13,0.0,2.0,81,0.00,,---,0.00,VWS V14.01,2013-03-01 12:27:00,
2013-03-01 06:30:00,20.2,14.7,30.30,NE,53,4.0,10.0,79,0.00,,---,0.00,VWS V14.01,2013-03-01 12:30:00,
2013-03-01 06:32:00,19.9,15.0,30.33,North,354,2.0,2.0,81,0.00,,---,0.00,VWS V14.01,2013-03-01 12:32:00,
2013-03-01 06:37:00,20.0,15.1,30.33,NNW,340,1.0,3.0,81,0.00,,---,0.00,VWS V14.01,2013-03-01 12:37:00,
2013-03-01 06:40:00,20.1,14.9,30.31,NE,51,3.0,10.0,80,0.00,,---,0.00,VWS V14.01,2013-03-01 12:40:00,
2013-03-01 06:42:00,20.2,15.0,30.33,NNE,32,0.0,2.0,80,0.00,,---,0.00,VWS V14.01,2013-03-01 12:42:00,
2013-03-01 06:47:00,20.4,15.2,30.33,East,90,0.0,2.0,80,0.00,,---,0.00,VWS V14.01,2013-03-01 12:47:00,
2013-03-01 06:50:00,20.1,14.9,30.31,ENE,59,3.0,8.0,80,0.00,,---,0.00,VWS V14.01,2013-03-01 12:50:00,
2013-03-01 06:52:00,20.5,15.3,30.33,NNE,12,0.0,3.0,80,0.00,,---,0.00,VWS V14.01,2013-03-01 12:52:00,
2013-03-01 06:58:00,20.6,15.4,30.33,NNW,347,2.0,4.0,80,0.00,,---,0.00,VWS V14.01,2013-03-01 12:58:00,
2013-03-01 07:00:00,20.1,14.9,30.31,NE,41,3.0,7.0,80,0.00,,---,0.00,VWS V14.01,2013-03-01 13:00:00,
2013-03-01 07:03:00,20.6,15.4,30.34,NNW,344,1.0,1.0,80,0.00,,---,0.00,VWS V14.01,2013-03-01 13:03:00,
2013-03-01 07:08:00,20.7,15.2,30.34,ENE,57,0.0,2.0,79,0.00,,---,0.00,VWS V14.01,2013-03-01 13:08:00,
2013-03-01 07:10:00,20.1,14.9,30.31,NE,54,5.0,8.0,80,0.00,,---,0.00,VWS V14.01,2013-03-01 13:10:00,
2013-03-01 07:13:00,20.8,15.3,30.34,NNW,335,1.0,1.0,79,0.00,,---,0.00,VWS V14.01,2013-03-01 13:13:00,
2013-03-01 07:18:00,20.9,15.4,30.34,NE,41,0.0,3.0,79,0.00,,---,0.00,VWS V14.01,2013-03-01 13:18:00,
2013-03-01 07:20:00,19.9,14.7,30.31,NE,56,2.0,6.0,80,0.00,,---,0.00,VWS V14.01,2013-03-01 13:20:00,
2013-03-01 07:23:00,21.0,15.2,30.34,NNE,14,0.0,4.0,78,0.00,,---,0.00,VWS V14.01,2013-03-01 13:23:00,
2013-03-01 07:28:00,21.1,15.6,30.34,NNE,20,1.0,5.0,79,0.00,,---,0.00,VWS V14.01,2013-03-01 13:28:00,
2013-03-01 07:30:00,19.8,14.9,30.32,ENE,72,0.0,5.0,81,0.00,,---,0.00,VWS V14.01,2013-03-01 13:30:00,
2013-03-01 07:33:00,21.1,15.6,30.34,NNE,32,2.0,6.0,79,0.00,,---,0.00,VWS V14.01,2013-03-01 13:33:00,
2013-03-01 07:38:00,21.2,15.4,30.35,NE,51,1.0,6.0,78,0.00,,---,0.00,VWS V14.01,2013-03-01 13:38:00,
2013-03-01 07:40:00,19.8,14.9,30.32,ENE,71,0.0,1.0,81,0.00,,---,0.00,VWS V14.01,2013-03-01 13:40:00,
2013-03-01 07:43:00,21.3,15.5,30.35,NE,50,1.0,2.0,78,0.00,,---,0.00,VWS V14.01,2013-03-01 13:43:00,
2013-03-01 07:48:00,21.3,15.8,30.35,NNW,333,1.0,4.0,79,0.00,,---,0.00,VWS V14.01,2013-03-01 13:48:00,
2013-03-01 07:50:00,19.8,14.9,30.32,ENE,70,0.0,0.0,81,0.00,,---,0.00,VWS V14.01,2013-03-01 13:50:00,
2013-03-01 07:54:00,21.5,16.0,30.35,East,81,0.0,2.0,79,0.00,,---,0.00,VWS V14.01,2013-03-01 13:54:00,
2013-03-01 07:59:00,21.5,16.0,30.35,NNE,14,0.0,2.0,79,0.00,,---,0.00,VWS V14.01,2013-03-01 13:59:00,
2013-03-01 08:00:00,19.8,14.9,30.32,ENE,71,0.0,0.0,81,0.00,,---,0.00,VWS V14.01,2013-03-01 14:00:00,
2013-03-01 08:04:00,21.6,16.4,30.35,NNE,23,2.0,3.0,80,0.00,,---,0.00,VWS V14.01,2013-03-01 14:04:00,
2013-03-01 08:09:00,21.6,16.4,30.35,NE,34,0.0,3.0,80,0.00,,---,0.00,VWS V14.01,2013-03-01 14:09:00,
2013-03-01 08:10:00,19.8,15.2,30.33,ENE,71,0.0,0.0,82,0.00,,---,0.00,VWS V14.01,2013-03-01 14:10:00,
2013-03-01 08:14:00,21.7,16.2,30.35,NE,54,0.0,2.0,79,0.00,,---,0.00,VWS V14.01,2013-03-01 14:14:00,
2013-03-01 08:19:00,21.8,16.6,30.35,NNE,32,2.0,3.0,80,0.00,,---,0.00,VWS V14.01,2013-03-01 14:19:00,
2013-03-01 08:20:00,19.7,15.1,30.33,ENE,71,0.0,0.0,82,0.00,,---,0.00,VWS V14.01,2013-03-01 14:20:00,
2013-03-01 08:24:00,21.8,16.3,30.35,NE,53,1.0,5.0,79,0.00,,---,0.00,VWS V14.01,2013-03-01 14:24:00,
2013-03-01 08:29:00,21.9,16.4,30.35,East,81,1.0,8.0,79,0.00,,---,0.00,VWS V14.01,2013-03-01 14:29:00,
2013-03-01 08:30:00,19.8,14.9,30.33,ENE,77,0.0,2.0,81,0.00,,---,0.00,VWS V14.01,2013-03-01 14:30:00,
2013-03-01 08:34:00,22.1,16.6,30.35,NE,36,1.0,5.0,79,0.00,,---,0.00,VWS V14.01,2013-03-01 14:34:00,
2013-03-01 08:39:00,22.3,17.1,30.35,NW,326,0.0,5.0,80,0.00,,---,0.00,VWS V14.01,2013-03-01 14:39:00,
2013-03-01 08:40:00,20.1,15.2,30.33,North,10,1.0,4.0,81,0.00,,---,0.00,VWS V14.01,2013-03-01 14:40:00,
2013-03-01 08:45:00,22.5,17.0,30.35,East,89,0.0,5.0,79,0.00,,---,0.00,VWS V14.01,2013-03-01 14:45:00,
2013-03-01 08:50:00,22.6,17.1,30.35,NE,47,0.0,5.0,79,0.00,,---,0.00,VWS V14.01,2013-03-01 14:50:00,
2013-03-01 08:55:00,22.8,17.3,30.35,NNE,25,3.0,6.0,79,0.00,,---,0.00,VWS V14.01,2013-03-01 14:55:00,
2013-03-01 09:00:00,22.9,17.4,30.35,NNE,23,1.0,6.0,79,0.00,,---,0.00,VWS V14.01,2013-03-01 15:00:00,
2013-03-01 09:05:00,23.0,17.2,30.36,NE,42,3.0,8.0,78,0.00,,---,0.00,VWS V14.01,2013-03-01 15:05:00,
2013-03-01 09:10:00,23.2,17.1,30.35,NNE,13,0.0,8.0,77,0.00,,---,0.00,VWS V14.01,2013-03-01 15:10:00,
2013-03-01 09:15:00,23.4,17.3,30.36,North,8,2.0,7.0,77,0.00,,---,0.00,VWS V14.01,2013-03-01 15:15:00,
2013-03-01 09:20:00,23.5,17.4,30.36,NE,41,2.0,4.0,77,0.00,,---,0.00,VWS V14.01,2013-03-01 15:20:00,
2013-03-01 09:25:00,23.6,17.5,30.36,North,1,1.0,4.0,77,0.00,,---,0.00,VWS V14.01,2013-03-01 15:25:00,
2013-03-01 09:30:00,23.6,17.2,30.36,North,1,2.0,4.0,76,0.00,,---,0.00,VWS V14.01,2013-03-01 15:30:00,
2013-03-01 09:36:00,23.6,17.2,30.36,NNE,22,2.0,6.0,76,0.00,,---,0.00,VWS V14.01,2013-03-01 15:36:00,
2013-03-01 09:40:00,21.2,15.4,30.35,ENE,64,1.0,6.0,78,0.00,,---,0.00,VWS V14.01,2013-03-01 15:40:00,
2013-03-01 09:41:00,23.8,17.0,30.36,NNE,15,3.0,3.0,75,0.00,,---,0.00,VWS V14.01,2013-03-01 15:41:00,
2013-03-01 09:46:00,24.0,17.2,30.36,East,87,2.0,8.0,75,0.00,,---,0.00,VWS V14.01,2013-03-01 15:46:00,
2013-03-01 09:50:00,21.4,15.9,30.35,NNE,25,0.0,4.0,79,0.00,,---,0.00,VWS V14.01,2013-03-01 15:50:00,
2013-03-01 09:51:00,24.2,17.1,30.36,NE,38,2.0,4.0,74,0.00,,---,0.00,VWS V14.01,2013-03-01 15:51:00,
2013-03-01 09:56:00,24.4,17.3,30.36,ENE,57,1.0,7.0,74,0.00,,---,0.00,VWS V14.01,2013-03-01 15:56:00,
2013-03-01 10:00:00,21.5,16.0,30.35,North,8,0.0,2.0,79,0.00,,---,0.00,VWS V14.01,2013-03-01 16:00:00,
2013-03-01 10:01:00,25.0,17.6,30.36,NE,36,4.0,7.0,73,0.00,,---,0.00,VWS V14.01,2013-03-01 16:01:00,
2013-03-01 10:06:00,25.2,17.5,30.36,NNE,23,3.0,10.0,72,0.00,,---,0.00,VWS V14.01,2013-03-01 16:06:00,
2013-03-01 10:10:00,21.6,16.4,30.35,North,358,0.0,3.0,80,0.00,,---,0.00,VWS V14.01,2013-03-01 16:10:00,
2013-03-01 10:11:00,25.4,18.0,30.36,NNE,25,3.0,6.0,73,0.00,,---,0.00,VWS V14.01,2013-03-01 16:11:00,
2013-03-01 10:16:00,25.5,17.8,30.37,North,6,2.0,6.0,72,0.00,,---,0.00,VWS V14.01,2013-03-01 16:16:00,
2013-03-01 10:20:00,21.8,16.3,30.35,East,85,4.0,4.0,79,0.00,,---,0.00,VWS V14.01,2013-03-01 16:20:00,
2013-03-01 10:21:00,25.6,18.2,30.37,NNW,338,1.0,2.0,73,0.00,,---,0.00,VWS V14.01,2013-03-01 16:21:00,
2013-03-01 10:26:00,25.6,17.8,30.37,North,359,1.0,4.0,72,0.00,,---,0.00,VWS V14.01,2013-03-01 16:26:00,
2013-03-01 10:30:00,22.0,16.5,30.35,NNE,18,1.0,8.0,79,0.00,,---,0.00,VWS V14.01,2013-03-01 16:30:00,
2013-03-01 10:32:00,25.6,17.8,30.37,NNE,22,2.0,4.0,72,0.00,,---,0.00,VWS V14.01,2013-03-01 16:32:00,
2013-03-01 10:37:00,25.5,17.8,30.37,North,6,4.0,7.0,72,0.00,,---,0.00,VWS V14.01,2013-03-01 16:37:00,
2013-03-01 10:40:00,22.3,17.1,30.35,NNW,338,0.0,5.0,80,0.00,,---,0.00,VWS V14.01,2013-03-01 16:40:00,
2013-03-01 10:42:00,25.4,17.3,30.37,North,358,0.0,4.0,71,0.00,,---,0.00,VWS V14.01,2013-03-01 16:42:00,
2013-03-01 10:47:00,25.6,17.8,30.37,NNW,345,1.0,6.0,72,0.00,,---,0.00,VWS V14.01,2013-03-01 16:47:00,
2013-03-01 10:50:00,22.7,17.2,30.35,NW,326,1.0,5.0,79,0.00,,---,0.00,VWS V14.01,2013-03-01 16:50:00,
2013-03-01 10:52:00,25.8,18.0,30.37,North,11,1.0,2.0,72,0.00,,---,0.00,VWS V14.01,2013-03-01 16:52:00,
2013-03-01 10:57:00,26.1,18.0,30.36,NNE,30,1.0,6.0,71,0.00,,---,0.00,VWS V14.01,2013-03-01 16:57:00,
2013-03-01 11:00:00,22.9,17.4,30.35,North,4,1.0,6.0,79,0.00,,---,0.00,VWS V14.01,2013-03-01 17:00:00,
2013-03-01 11:02:00,26.5,18.0,30.37,North,350,4.0,6.0,70,0.00,,---,0.00,VWS V14.01,2013-03-01 17:02:00,
2013-03-01 11:07:00,26.7,18.2,30.37,NNE,18,4.0,6.0,70,0.00,,---,0.00,VWS V14.01,2013-03-01 17:07:00,
2013-03-01 11:10:00,23.2,17.1,30.35,NNE,13,0.0,8.0,77,0.00,,---,0.00,VWS V14.01,2013-03-01 17:10:00,
2013-03-01 11:12:00,26.6,18.1,30.36,North,356,1.0,4.0,70,0.00,,---,0.00,VWS V14.01,2013-03-01 17:12:00,
2013-03-01 11:17:00,26.8,18.3,30.36,NNE,26,2.0,5.0,70,0.00,,---,0.00,VWS V14.01,2013-03-01 17:17:00,
2013-03-01 11:20:00,23.5,17.4,30.36,NE,51,4.0,7.0,77,0.00,,---,0.00,VWS V14.01,2013-03-01 17:20:00,
2013-03-01 11:22:00,26.9,18.4,30.36,East,88,4.0,4.0,70,0.00,,---,0.00,VWS V14.01,2013-03-01 17:22:00,
2013-03-01 11:27:00,27.1,18.3,30.36,North,1,3.0,4.0,69,0.00,,---,0.00,VWS V14.01,2013-03-01 17:27:00,
2013-03-01 11:30:00,23.6,17.2,30.36,NNE,25,3.0,4.0,76,0.00,,---,0.00,VWS V14.01,2013-03-01 17:30:00,
2013-03-01 11:32:00,26.9,18.1,30.36,North,356,1.0,5.0,69,0.00,,---,0.00,VWS V14.01,2013-03-01 17:32:00,
2013-03-01 11:37:00,27.0,18.5,30.36,NNW,347,3.0,6.0,70,0.00,,---,0.00,VWS V14.01,2013-03-01 17:37:00,
2013-03-01 11:40:00,23.7,17.0,30.36,NNE,19,1.0,6.0,75,0.00,,---,0.00,VWS V14.01,2013-03-01 17:40:00,
2013-03-01 11:43:00,27.0,18.5,30.36,North,8,1.0,4.0,70,0.00,,---,0.00,VWS V14.01,2013-03-01 17:43:00,
2013-03-01 11:48:00,27.2,18.4,30.36,ENE,65,6.0,7.0,69,0.00,,---,0.00,VWS V14.01,2013-03-01 17:48:00,
2013-03-01 11:50:00,24.2,17.1,30.36,NNE,23,2.0,8.0,74,0.00,,---,0.00,VWS V14.01,2013-03-01 17:50:00,
2013-03-01 11:53:00,27.1,18.6,30.36,North,358,1.0,5.0,70,0.00,,---,0.00,VWS V14.01,2013-03-01 17:53:00,
2013-03-01 11:58:00,27.3,18.5,30.36,NNE,18,1.0,5.0,69,0.00,,---,0.00,VWS V14.01,2013-03-01 17:58:00,
2013-03-01 12:00:00,24.9,17.5,30.36,NE,48,5.0,7.0,73,0.00,,---,0.00,VWS V14.01,2013-03-01 18:00:00,
2013-03-01 12:03:00,27.5,19.0,30.36,NE,43,4.0,6.0,70,0.00,,---,0.00,VWS V14.01,2013-03-01 18:03:00,
2013-03-01 12:08:00,28.0,18.8,30.36,ESE,112,2.0,6.0,68,0.00,,---,0.00,VWS V14.01,2013-03-01 18:08:00,
2013-03-01 12:10:00,25.3,17.9,30.36,North,10,1.0,10.0,73,0.00,,---,0.00,VWS V14.01,2013-03-01 18:10:00,
2013-03-01 12:13:00,28.5,19.0,30.36,ENE,74,4.0,4.0,67,0.00,,---,0.00,VWS V14.01,2013-03-01 18:13:00,
2013-03-01 12:18:00,28.5,18.6,30.36,North,6,1.0,7.0,66,0.00,,---,0.00,VWS V14.01,2013-03-01 18:18:00,
2013-03-01 12:20:00,25.5,18.1,30.37,East,93,1.0,6.0,73,0.00,,---,0.00,VWS V14.01,2013-03-01 18:20:00,
2013-03-01 12:23:00,28.4,18.5,30.36,North,356,3.0,4.0,66,0.00,,---,0.00,VWS V14.01,2013-03-01 18:23:00,
2013-03-01 12:28:00,28.3,18.8,30.36,NE,36,2.0,5.0,67,0.00,,---,0.00,VWS V14.01,2013-03-01 18:28:00,
2013-03-01 12:30:00,25.5,17.8,30.37,NE,40,1.0,5.0,72,0.00,,---,0.00,VWS V14.01,2013-03-01 18:30:00,
2013-03-01 12:33:00,28.6,18.7,30.36,East,94,4.0,4.0,66,0.00,,---,0.00,VWS V14.01,2013-03-01 18:33:00,
2013-03-01 12:38:00,28.7,18.8,30.36,NW,315,1.0,4.0,66,0.00,,---,0.00,VWS V14.01,2013-03-01 18:38:00,
2013-03-01 12:40:00,25.5,17.8,30.37,NNE,25,2.0,8.0,72,0.00,,---,0.00,VWS V14.01,2013-03-01 18:40:00,
2013-03-01 12:44:00,29.0,18.7,30.36,NNW,346,1.0,5.0,65,0.00,,---,0.00,VWS V14.01,2013-03-01 18:44:00,
2013-03-01 12:49:00,29.2,18.5,30.35,NNW,345,1.0,5.0,64,0.00,,---,0.00,VWS V14.01,2013-03-01 18:49:00,
2013-03-01 12:50:00,25.6,17.8,30.37,North,359,1.0,6.0,72,0.00,,---,0.00,VWS V14.01,2013-03-01 18:50:00,
2013-03-01 12:54:00,29.2,18.9,30.35,East,100,1.0,6.0,65,0.00,,---,0.00,VWS V14.01,2013-03-01 18:54:00,
2013-03-01 12:59:00,29.3,19.0,30.35,NE,37,1.0,6.0,65,0.00,,---,0.00,VWS V14.01,2013-03-01 18:59:00,
2013-03-01 13:00:00,26.4,18.3,30.37,NE,36,1.0,6.0,71,0.00,,---,0.00,VWS V14.01,2013-03-01 19:00:00,
2013-03-01 13:04:00,29.1,18.8,30.35,North,356,1.0,6.0,65,0.00,,---,0.00,VWS V14.01,2013-03-01 19:04:00,
2013-03-01 13:09:00,29.0,18.7,30.35,NNE,33,2.0,6.0,65,0.00,,---,0.00,VWS V14.01,2013-03-01 19:09:00,
2013-03-01 13:10:00,26.6,17.8,30.37,North,8,1.0,6.0,69,0.00,,---,0.00,VWS V14.01,2013-03-01 19:10:00,
2013-03-01 13:14:00,28.9,18.6,30.35,NNW,334,1.0,8.0,65,0.00,,---,0.00,VWS V14.01,2013-03-01 19:14:00,
2013-03-01 13:19:00,28.9,18.3,30.35,NNW,345,1.0,8.0,64,0.00,,---,0.00,VWS V14.01,2013-03-01 19:19:00,
2013-03-01 13:20:00,26.8,18.0,30.36,NNW,340,2.0,6.0,69,0.00,,---,0.00,VWS V14.01,2013-03-01 19:20:00,
2013-03-01 13:24:00,28.8,18.2,30.34,NNW,342,1.0,9.0,64,0.00,,---,0.00,VWS V14.01,2013-03-01 19:24:00,
2013-03-01 13:29:00,28.8,18.2,30.34,NNW,339,1.0,9.0,64,0.00,,---,0.00,VWS V14.01,2013-03-01 19:29:00,
2013-03-01 13:30:00,27.0,18.2,30.36,NNW,329,1.0,5.0,69,0.00,,---,0.00,VWS V14.01,2013-03-01 19:30:00,
2013-03-01 13:35:00,28.9,17.9,30.34,North,356,1.0,3.0,63,0.00,,---,0.00,VWS V14.01,2013-03-01 19:35:00,
2013-03-01 13:40:00,29.2,18.5,30.34,NNE,20,2.0,4.0,64,0.00,,---,0.00,VWS V14.01,2013-03-01 19:40:00,
2013-03-01 13:45:00,29.2,18.5,30.34,NE,37,2.0,4.0,64,0.00,,---,0.00,VWS V14.01,2013-03-01 19:45:00,
2013-03-01 13:50:00,29.2,18.5,30.34,NE,48,0.0,9.0,64,0.00,,---,0.00,VWS V14.01,2013-03-01 19:50:00,
2013-03-01 13:55:00,29.3,18.6,30.34,NNW,330,1.0,5.0,64,0.00,,---,0.00,VWS V14.01,2013-03-01 19:55:00,
2013-03-01 14:00:00,29.5,18.5,30.34,NNW,340,2.0,5.0,63,0.00,,---,0.00,VWS V14.01,2013-03-01 20:00:00,
2013-03-01 14:05:00,29.6,18.6,30.34,NNE,32,3.0,8.0,63,0.00,,---,0.00,VWS V14.01,2013-03-01 20:05:00,
2013-03-01 14:10:00,29.7,19.0,30.34,NNW,342,1.0,2.0,64,0.00,,---,0.00,VWS V14.01,2013-03-01 20:10:00,
2013-03-01 14:15:00,30.0,18.6,30.34,East,84,2.0,5.0,62,0.00,,---,0.00,VWS V14.01,2013-03-01 20:15:00,
2013-03-01 14:20:00,28.5,18.6,30.36,NNW,331,2.0,7.0,66,0.00,,---,0.00,VWS V14.01,2013-03-01 20:20:00,
2013-03-01 14:21:00,30.2,19.1,30.34,SE,146,1.0,2.0,63,0.00,,---,0.00,VWS V14.01,2013-03-01 20:21:00,
2013-03-01 14:26:00,30.5,18.7,30.34,NNE,25,1.0,4.0,61,0.00,,---,0.00,VWS V14.01,2013-03-01 20:26:00,
2013-03-01 14:30:00,28.4,18.9,30.36,NNW,338,2.0,5.0,67,0.00,,---,0.00,VWS V14.01,2013-03-01 20:30:00,
2013-03-01 14:31:00,30.5,18.7,30.34,West,264,2.0,3.0,61,0.00,,---,0.00,VWS V14.01,2013-03-01 20:31:00,
2013-03-01 14:36:00,30.5,18.7,30.34,NE,41,1.0,6.0,61,0.00,,---,0.00,VWS V14.01,2013-03-01 20:36:00,
2013-03-01 14:40:00,28.9,19.0,30.36,East,97,2.0,4.0,66,0.00,,---,0.00,VWS V14.01,2013-03-01 20:40:00,
2013-03-01 14:41:00,30.2,18.0,30.34,NE,54,3.0,5.0,60,0.00,,---,0.00,VWS V14.01,2013-03-01 20:41:00,
2013-03-01 14:46:00,30.3,18.5,30.34,NNW,338,0.0,5.0,61,0.00,,---,0.00,VWS V14.01,2013-03-01 20:46:00,
2013-03-01 14:50:00,29.2,18.9,30.35,North,1,2.0,5.0,65,0.00,,---,0.00,VWS V14.01,2013-03-01 20:50:00,
2013-03-01 14:51:00,30.5,18.7,30.34,West,271,2.0,5.0,61,0.00,,---,0.00,VWS V14.01,2013-03-01 20:51:00,
2013-03-01 14:56:00,30.6,18.4,30.34,NNE,29,0.0,7.0,60,0.00,,---,0.00,VWS V14.01,2013-03-01 20:56:00,
2013-03-01 15:00:00,29.2,18.5,30.35,NNE,12,3.0,7.0,64,0.00,,---,0.00,VWS V14.01,2013-03-01 21:00:00,
2013-03-01 15:01:00,30.6,18.8,30.34,NE,39,6.0,11.0,61,0.00,,---,0.00,VWS V14.01,2013-03-01 21:01:00,
2013-03-01 15:06:00,30.4,18.2,30.34,North,4,1.0,11.0,60,0.00,,---,0.00,VWS V14.01,2013-03-01 21:06:00,
2013-03-01 15:10:00,29.0,19.1,30.35,NNE,20,2.0,6.0,66,0.00,,---,0.00,VWS V14.01,2013-03-01 21:10:00,
2013-03-01 15:12:00,30.8,19.0,30.34,NNE,25,2.0,2.0,61,0.00,,---,0.00,VWS V14.01,2013-03-01 21:12:00,
2013-03-01 15:17:00,31.2,19.0,30.34,NNW,340,2.0,3.0,60,0.00,,---,0.00,VWS V14.01,2013-03-01 21:17:00,
2013-03-01 15:20:00,28.9,17.9,30.35,WNW,295,1.0,8.0,63,0.00,,---,0.00,VWS V14.01,2013-03-01 21:20:00,
2013-03-01 15:22:00,30.9,18.7,30.34,NNE,23,1.0,6.0,60,0.00,,---,0.00,VWS V14.01,2013-03-01 21:22:00,
2013-03-01 15:27:00,30.6,18.8,30.34,NE,47,1.0,8.0,61,0.00,,---,0.00,VWS V14.01,2013-03-01 21:27:00,
2013-03-01 15:30:00,28.8,18.2,30.34,East,85,3.0,9.0,64,0.00,,---,0.00,VWS V14.01,2013-03-01 21:30:00,
2013-03-01 15:32:00,30.6,18.4,30.34,North,356,0.0,2.0,60,0.00,,---,0.00,VWS V14.01,2013-03-01 21:32:00,
2013-03-01 15:37:00,30.8,18.6,30.34,ENE,71,1.0,2.0,60,0.00,,---,0.00,VWS V14.01,2013-03-01 21:37:00,
2013-03-01 15:40:00,29.2,18.5,30.34,NNE,26,2.0,4.0,64,0.00,,---,0.00,VWS V14.01,2013-03-01 21:40:00,
2013-03-01 15:42:00,30.5,18.7,30.34,NNE,18,4.0,4.0,61,0.00,,---,0.00,VWS V14.01,2013-03-01 21:42:00,
2013-03-01 15:48:00,30.2,17.6,30.34,NE,36,2.0,6.0,59,0.00,,---,0.00,VWS V14.01,2013-03-01 21:48:00,
2013-03-01 15:50:00,29.2,18.5,30.34,NE,48,0.0,9.0,64,0.00,,---,0.00,VWS V14.01,2013-03-01 21:50:00,
2013-03-01 15:53:00,30.1,17.9,30.34,North,6,2.0,4.0,60,0.00,,---,0.00,VWS V14.01,2013-03-01 21:53:00,
2013-03-01 15:58:00,30.1,17.5,30.34,North,6,1.0,4.0,59,0.00,,---,0.00,VWS V14.01,2013-03-01 21:58:00,
2013-03-01 16:00:00,29.5,18.5,30.34,NNW,340,2.0,5.0,63,0.00,,---,0.00,VWS V14.01,2013-03-01 22:00:00,
2013-03-01 16:03:00,30.0,17.0,30.34,SE,141,1.0,5.0,58,0.00,,---,0.00,VWS V14.01,2013-03-01 22:03:00,
2013-03-01 16:08:00,29.7,16.8,30.34,ESE,102,2.0,6.0,58,0.00,,---,0.00,VWS V14.01,2013-03-01 22:08:00,
2013-03-01 16:10:00,29.7,19.0,30.34,NNE,15,1.0,8.0,64,0.00,,---,0.00,VWS V14.01,2013-03-01 22:10:00,
2013-03-01 16:13:00,29.5,17.0,30.34,ENE,61,1.0,4.0,59,0.00,,---,0.00,VWS V14.01,2013-03-01 22:13:00,
2013-03-01 16:18:00,29.3,16.4,30.34,East,80,1.0,5.0,58,0.00,,---,0.00,VWS V14.01,2013-03-01 22:18:00,
2013-03-01 16:20:00,30.1,18.7,30.34,North,4,1.0,6.0,62,0.00,,---,0.00,VWS V14.01,2013-03-01 22:20:00,
2013-03-01 16:23:00,29.1,16.6,30.34,NNE,27,2.0,3.0,59,0.00,,---,0.00,VWS V14.01,2013-03-01 22:23:00,
2013-03-01 16:30:00,30.5,18.7,30.34,NNW,345,0.0,7.0,61,0.00,,---,0.00,VWS V14.01,2013-03-01 22:30:00,
2013-03-01 16:40:00,30.2,18.0,30.34,NE,49,0.0,6.0,60,0.00,,---,0.00,VWS V14.01,2013-03-01 22:40:00,
2013-03-01 16:50:00,30.5,18.7,30.34,East,92,2.0,5.0,61,0.00,,---,0.00,VWS V14.01,2013-03-01 22:50:00,
2013-03-01 17:00:00,30.6,18.8,30.34,NNW,328,2.0,7.0,61,0.00,,---,0.00,VWS V14.01,2013-03-01 23:00:00,
2013-03-01 17:05:00,26.8,16.6,30.34,North,0,2.0,7.0,65,0.00,,---,0.00,VWS V14.01,2013-03-01 23:05:00,
2013-03-01 17:10:00,25.7,16.6,30.35,NE,36,0.0,1.0,68,0.00,,---,0.00,VWS V14.01,2013-03-01 23:10:00,
2013-03-01 17:16:00,25.4,16.3,30.35,ENE,65,0.0,3.0,68,0.00,,---,0.00,VWS V14.01,2013-03-01 23:16:00,
2013-03-01 17:20:00,31.1,18.9,30.34,NE,46,3.0,8.0,60,0.00,,---,0.00,VWS V14.01,2013-03-01 23:20:00,
2013-03-01 17:21:00,25.3,16.2,30.35,NW,325,1.0,3.0,68,0.00,,---,0.00,VWS V14.01,2013-03-01 23:21:00,
2013-03-01 17:26:00,25.1,16.0,30.35,NE,46,1.0,3.0,68,0.00,,---,0.00,VWS V14.01,2013-03-01 23:26:00,
2013-03-01 17:30:00,30.6,18.8,30.34,NE,49,1.0,8.0,61,0.00,,---,0.00,VWS V14.01,2013-03-01 23:30:00,
2013-03-01 17:31:00,24.9,15.9,30.35,NNE,20,0.0,1.0,68,0.00,,---,0.00,VWS V14.01,2013-03-01 23:31:00,
2013-03-01 17:36:00,24.6,15.9,30.35,NNE,12,0.0,3.0,69,0.00,,---,0.00,VWS V14.01,2013-03-01 23:36:00,
2013-03-01 17:40:00,30.6,18.8,30.34,NNE,20,3.0,5.0,61,0.00,,---,0.00,VWS V14.01,2013-03-01 23:40:00,
2013-03-01 17:42:00,24.3,15.6,30.35,ENE,60,1.0,2.0,69,0.00,,---,0.00,VWS V14.01,2013-03-01 23:42:00,
2013-03-01 17:47:00,24.0,15.3,30.35,North,6,1.0,2.0,69,0.00,,---,0.00,VWS V14.01,2013-03-01 23:47:00,
2013-03-01 17:50:00,30.1,17.5,30.34,NNW,338,1.0,6.0,59,0.00,,---,0.00,VWS V14.01,2013-03-01 23:50:00,
2013-03-01 17:52:00,23.8,15.1,30.35,ENE,63,0.0,3.0,69,0.00,,---,0.00,VWS V14.01,2013-03-01 23:52:00,
2013-03-01 17:57:00,23.6,14.9,30.35,NNE,19,0.0,3.0,69,0.00,,---,0.00,VWS V14.01,2013-03-01 23:57:00,
2013-03-01 18:00:00,30.1,17.1,30.34,WNW,283,1.0,4.0,58,0.00,,---,0.00,VWS V14.01,2013-03-02 00:00:00,
2013-03-01 18:02:00,23.4,15.1,30.35,ENE,67,0.0,1.0,70,0.00,,---,0.00,VWS V14.01,2013-03-02 00:02:00,
2013-03-01 18:08:00,23.1,14.8,30.35,ENE,63,0.0,2.0,70,0.00,,---,0.00,VWS V14.01,2013-03-02 00:08:00,
2013-03-01 18:10:00,29.7,16.8,30.34,ENE,59,2.0,6.0,58,0.00,,---,0.00,VWS V14.01,2013-03-02 00:10:00,
2013-03-01 18:13:00,22.7,14.7,30.35,ENE,64,0.0,4.0,71,0.00,,---,0.00,VWS V14.01,2013-03-02 00:13:00,
2013-03-01 18:18:00,22.5,14.5,30.35,North,11,1.0,4.0,71,0.00,,---,0.00,VWS V14.01,2013-03-02 00:18:00,
2013-03-01 18:20:00,29.2,16.7,30.34,NNE,27,1.0,7.0,59,0.00,,---,0.00,VWS V14.01,2013-03-02 00:20:00,
2013-03-01 18:23:00,22.3,14.3,30.35,North,360,1.0,3.0,71,0.00,,---,0.00,VWS V14.01,2013-03-02 00:23:00,
2013-03-01 18:29:00,22.1,14.1,30.35,ENE,78,0.0,3.0,71,0.00,,---,0.00,VWS V14.01,2013-03-02 00:29:00,
2013-03-01 18:30:00,29.0,17.2,30.34,NNE,22,1.0,5.0,61,0.00,,---,0.00,VWS V14.01,2013-03-02 00:30:00,
2013-03-01 18:34:00,21.9,14.0,30.35,East,84,2.0,3.0,71,0.00,,---,0.00,VWS V14.01,2013-03-02 00:34:00,
2013-03-01 18:39:00,21.7,14.1,30.35,East,90,0.0,3.0,72,0.00,,---,0.00,VWS V14.01,2013-03-02 00:39:00,
2013-03-01 18:40:00,27.8,16.9,30.34,North,0,1.0,7.0,63,0.00,,---,0.00,VWS V14.01,2013-03-02 00:40:00,
2013-03-01 18:44:00,21.5,13.9,30.36,NE,53,1.0,2.0,72,0.00,,---,0.00,VWS V14.01,2013-03-02 00:44:00,
2013-03-01 18:49:00,21.3,13.7,30.36,ENE,73,0.0,2.0,72,0.00,,---,0.00,VWS V14.01,2013-03-02 00:49:00,
2013-03-01 18:50:00,26.8,16.6,30.34,North,0,2.0,7.0,65,0.00,,---,0.00,VWS V14.01,2013-03-02 00:50:00,
2013-03-01 18:54:00,21.0,13.7,30.36,ENE,70,0.0,2.0,73,0.00,,---,0.00,VWS V14.01,2013-03-02 00:54:00,
2013-03-01 19:00:00,20.7,13.4,30.36,NE,51,0.0,2.0,73,0.00,,---,0.00,VWS V14.01,2013-03-02 01:00:00,
2013-03-01 19:05:00,20.6,13.0,30.36,North,359,0.0,2.0,72,0.00,,---,0.00,VWS V14.01,2013-03-02 01:05:00,
2013-03-01 19:10:00,20.5,13.2,30.36,North,352,1.0,2.0,73,0.00,,---,0.00,VWS V14.01,2013-03-02 01:10:00,
2013-03-01 19:15:00,20.3,13.0,30.36,North,354,0.0,0.0,73,0.00,,---,0.00,VWS V14.01,2013-03-02 01:15:00,
2013-03-01 19:20:00,25.3,16.2,30.35,North,354,0.0,4.0,68,0.00,,---,0.00,VWS V14.01,2013-03-02 01:20:00,
2013-03-01 19:21:00,20.1,12.9,30.36,ENE,69,0.0,0.0,73,0.00,,---,0.00,VWS V14.01,2013-03-02 01:21:00,
2013-03-01 19:26:00,19.9,13.0,30.36,NE,38,1.0,2.0,74,0.00,,---,0.00,VWS V14.01,2013-03-02 01:26:00,
2013-03-01 19:30:00,24.9,15.9,30.35,NNW,346,0.0,3.0,68,0.00,,---,0.00,VWS V14.01,2013-03-02 01:30:00,
2013-03-01 19:31:00,19.9,13.0,30.36,ENE,71,1.0,2.0,74,0.00,,---,0.00,VWS V14.01,2013-03-02 01:31:00,
2013-03-01 19:36:00,19.8,12.9,30.36,North,6,1.0,2.0,74,0.00,,---,0.00,VWS V14.01,2013-03-02 01:36:00,
2013-03-01 19:40:00,24.4,15.7,30.35,NNE,29,0.0,3.0,69,0.00,,---,0.00,VWS V14.01,2013-03-02 01:40:00,
2013-03-01 19:41:00,19.7,12.8,30.36,East,84,0.0,0.0,74,0.00,,---,0.00,VWS V14.01,2013-03-02 01:41:00,
2013-03-01 19:46:00,19.4,12.5,30.36,NE,46,1.0,1.0,74,0.00,,---,0.00,VWS V14.01,2013-03-02 01:46:00,
2013-03-01 19:50:00,23.9,15.2,30.35,North,352,0.0,2.0,69,0.00,,---,0.00,VWS V14.01,2013-03-02 01:50:00,
2013-03-01 19:51:00,19.1,12.5,30.36,East,89,0.0,1.0,75,0.00,,---,0.00,VWS V14.01,2013-03-02 01:51:00,
2013-03-01 19:56:00,18.9,12.6,30.36,North,6,0.0,2.0,76,0.00,,---,0.00,VWS V14.01,2013-03-02 01:56:00,
2013-03-01 20:00:00,23.5,14.8,30.35,East,100,1.0,3.0,69,0.00,,---,0.00,VWS V14.01,2013-03-02 02:00:00,
2013-03-01 20:02:00,18.8,12.5,30.36,NNE,25,0.0,0.0,76,0.00,,---,0.00,VWS V14.01,2013-03-02 02:02:00,
2013-03-01 20:07:00,18.7,12.4,30.36,North,358,0.0,3.0,76,0.00,,---,0.00,VWS V14.01,2013-03-02 02:07:00,
2013-03-01 20:10:00,22.9,14.9,30.35,East,79,1.0,2.0,71,0.00,,---,0.00,VWS V14.01,2013-03-02 02:10:00,
2013-03-01 20:12:00,18.5,12.2,30.36,NE,53,0.0,1.0,76,0.00,,---,0.00,VWS V14.01,2013-03-02 02:12:00,
2013-03-01 20:17:00,18.3,12.0,30.36,NNE,19,0.0,2.0,76,0.00,,---,0.00,VWS V14.01,2013-03-02 02:17:00,
2013-03-01 20:20:00,22.4,14.4,30.35,North,10,0.0,4.0,71,0.00,,---,0.00,VWS V14.01,2013-03-02 02:20:00,
2013-03-01 20:22:00,18.2,12.2,30.36,North,4,0.0,1.0,77,0.00,,---,0.00,VWS V14.01,2013-03-02 02:22:00,
2013-03-01 20:27:00,18.0,12.0,30.36,ENE,75,0.0,2.0,77,0.00,,---,0.00,VWS V14.01,2013-03-02 02:27:00,
2013-03-01 20:30:00,22.0,14.1,30.35,ENE,77,0.0,3.0,71,0.00,,---,0.00,VWS V14.01,2013-03-02 02:30:00,
2013-03-01 20:33:00,17.7,11.7,30.36,NNE,26,1.0,2.0,77,0.00,,---,0.00,VWS V14.01,2013-03-02 02:33:00,
2013-03-01 20:38:00,17.7,11.7,30.36,North,5,1.0,3.0,77,0.00,,---,0.00,VWS V14.01,2013-03-02 02:38:00,
2013-03-01 20:40:00,21.6,14.0,30.36,NNE,33,0.0,3.0,72,0.00,,---,0.00,VWS V14.01,2013-03-02 02:40:00,
2013-03-01 20:43:00,17.5,11.8,30.36,NNW,344,0.0,1.0,78,0.00,,---,0.00,VWS V14.01,2013-03-02 02:43:00,
2013-03-01 20:48:00,17.4,11.7,30.37,ENE,70,0.0,2.0,78,0.00,,---,0.00,VWS V14.01,2013-03-02 02:48:00,
2013-03-01 20:50:00,21.2,13.6,30.36,ENE,73,0.0,2.0,72,0.00,,---,0.00,VWS V14.01,2013-03-02 02:50:00,
2013-03-01 20:53:00,17.1,11.4,30.37,NNE,16,0.0,0.0,78,0.00,,---,0.00,VWS V14.01,2013-03-02 02:53:00,
2013-03-01 20:58:00,17.0,11.3,30.37,NNE,14,0.0,1.0,78,0.00,,---,0.00,VWS V14.01,2013-03-02 02:58:00,
2013-03-01 21:00:00,20.7,13.4,30.36,NE,51,0.0,2.0,73,0.00,,---,0.00,VWS V14.01,2013-03-02 03:00:00,
2013-03-01 21:04:00,16.7,11.3,30.37,ENE,73,0.0,0.0,79,0.00,,---,0.00,VWS V14.01,2013-03-02 03:04:00,
2013-03-01 21:09:00,16.6,11.2,30.37,East,89,1.0,3.0,79,0.00,,---,0.00,VWS V14.01,2013-03-02 03:09:00,
2013-03-01 21:10:00,20.5,13.2,30.36,North,352,1.0,2.0,73,0.00,,---,0.00,VWS V14.01,2013-03-02 03:10:00,
2013-03-01 21:14:00,16.4,11.0,30.36,ENE,76,1.0,2.0,79,0.00,,---,0.00,VWS V14.01,2013-03-02 03:14:00,
2013-03-01 21:19:00,16.3,10.9,30.36,NNE,18,0.0,2.0,79,0.00,,---,0.00,VWS V14.01,2013-03-02 03:19:00,
2013-03-01 21:20:00,20.1,12.9,30.36,ENE,70,0.0,1.0,73,0.00,,---,0.00,VWS V14.01,2013-03-02 03:20:00,
2013-03-01 21:24:00,16.1,10.8,30.37,NNW,342,1.0,1.0,79,0.00,,---,0.00,VWS V14.01,2013-03-02 03:24:00,
2013-03-01 21:29:00,15.9,10.6,30.36,NNE,13,1.0,2.0,79,0.00,,---,0.00,VWS V14.01,2013-03-02 03:29:00,
2013-03-01 21:30:00,19.9,13.0,30.36,North,4,2.0,2.0,74,0.00,,---,0.00,VWS V14.01,2013-03-02 03:30:00,
2013-03-01 21:35:00,15.5,10.4,30.36,NNW,347,0.0,2.0,80,0.00,,---,0.00,VWS V14.01,2013-03-02 03:35:00,
2013-03-01 21:40:00,15.2,10.1,30.36,NNW,346,1.0,2.0,80,0.00,,---,0.00,VWS V14.01,2013-03-02 03:40:00,
2013-03-01 21:45:00,15.0,10.2,30.37,NE,49,0.0,1.0,81,0.00,,---,0.00,VWS V14.01,2013-03-02 03:45:00,
2013-03-01 21:50:00,14.9,10.4,30.36,North,5,0.0,1.0,82,0.00,,---,0.00,VWS V14.01,2013-03-02 03:50:00,
2013-03-01 21:55:00,14.7,10.2,30.37,NE,37,0.0,1.0,82,0.00,,---,0.00,VWS V14.01,2013-03-02 03:55:00,
2013-03-01 22:00:00,14.6,10.1,30.37,North,356,0.0,1.0,82,0.00,,---,0.00,VWS V14.01,2013-03-02 04:00:00,
2013-03-01 22:05:00,14.4,9.9,30.37,North,4,0.0,1.0,82,0.00,,---,0.00,VWS V14.01,2013-03-02 04:05:00,
2013-03-01 22:10:00,14.1,9.9,30.37,North,3,0.0,1.0,83,0.00,,---,0.00,VWS V14.01,2013-03-02 04:10:00,
2013-03-01 22:15:00,14.0,9.8,30.37,North,4,0.0,0.0,83,0.00,,---,0.00,VWS V14.01,2013-03-02 04:15:00,
2013-03-01 22:20:00,13.7,9.5,30.37,North,3,0.0,0.0,83,0.00,,---,0.00,VWS V14.01,2013-03-02 04:20:00,
2013-03-01 22:26:00,13.6,9.7,30.37,North,4,0.0,0.0,84,0.00,,---,0.00,VWS V14.01,2013-03-02 04:26:00,
2013-03-01 22:30:00,17.8,11.8,30.36,East,79,0.0,2.0,77,0.00,,---,0.00,VWS V14.01,2013-03-02 04:30:00,
2013-03-01 22:31:00,13.5,9.6,30.37,North,4,0.0,0.0,84,0.00,,---,0.00,VWS V14.01,2013-03-02 04:31:00,
2013-03-01 22:36:00,13.4,9.7,30.37,North,4,0.0,0.0,85,0.00,,---,0.00,VWS V14.01,2013-03-02 04:36:00,
2013-03-01 22:40:00,17.6,11.6,30.36,NNW,346,1.0,3.0,77,0.00,,---,0.00,VWS V14.01,2013-03-02 04:40:00,
2013-03-01 22:41:00,13.3,9.6,30.37,North,1,0.0,0.0,85,0.00,,---,0.00,VWS V14.01,2013-03-02 04:41:00,
2013-03-01 22:46:00,13.2,9.6,30.37,North,1,0.0,0.0,85,0.00,,---,0.00,VWS V14.01,2013-03-02 04:46:00,
2013-03-01 22:50:00,17.3,11.6,30.37,NNE,16,0.0,2.0,78,0.00,,---,0.00,VWS V14.01,2013-03-02 04:50:00,
2013-03-01 22:51:00,13.1,9.4,30.37,ENE,57,0.0,0.0,85,0.00,,---,0.00,VWS V14.01,2013-03-02 04:51:00,
2013-03-01 22:56:00,12.9,9.5,30.37,ENE,57,0.0,0.0,86,0.00,,---,0.00,VWS V14.01,2013-03-02 04:56:00,
2013-03-01 23:00:00,12.9,9.5,30.37,ENE,57,0.0,0.0,86,0.00,,---,0.00,VWS V14.01,2013-03-02 05:00:00,
2013-03-01 23:01:00,12.8,9.4,30.37,ENE,57,0.0,0.0,86,0.00,,---,0.00,VWS V14.01,2013-03-02 05:01:00,
2013-03-01 23:02:00,12.8,9.4,30.37,ENE,57,0.0,0.0,86,0.00,,---,0.00,VWS V14.01,2013-03-02 05:02:00,
2013-03-01 23:07:00,12.6,9.2,30.37,ENE,57,0.0,0.0,86,0.00,,---,0.00,VWS V14.01,2013-03-02 05:07:00,
2013-03-01 23:10:00,16.5,11.1,30.36,East,84,1.0,3.0,79,0.00,,---,0.00,VWS V14.01,2013-03-02 05:10:00,
2013-03-01 23:12:00,12.5,9.1,30.37,ENE,57,0.0,0.0,86,0.00,,---,0.00,VWS V14.01,2013-03-02 05:12:00,
2013-03-01 23:17:00,12.3,9.2,30.37,ENE,57,0.0,0.0,87,0.00,,---,0.00,VWS V14.01,2013-03-02 05:17:00,
2013-03-01 23:20:00,16.3,10.9,30.36,NNE,12,1.0,2.0,79,0.00,,---,0.00,VWS V14.01,2013-03-02 05:20:00,
2013-03-01 23:22:00,12.2,9.1,30.37,ENE,57,0.0,0.0,87,0.00,,---,0.00,VWS V14.01,2013-03-02 05:22:00,
2013-03-01 23:27:00,12.0,8.9,30.37,ENE,57,0.0,0.0,87,0.00,,---,0.00,VWS V14.01,2013-03-02 05:27:00,
2013-03-01 23:30:00,15.8,10.4,30.36,NNE,12,0.0,2.0,79,0.00,,---,0.00,VWS V14.01,2013-03-02 05:30:00,
2013-03-01 23:32:00,11.7,8.3,30.37,ENE,57,0.0,0.0,86,0.00,,---,0.00,VWS V14.01,2013-03-02 05:32:00,
2013-03-01 23:37:00,11.3,7.9,30.37,ENE,57,0.0,0.0,86,0.00,,---,0.00,VWS V14.01,2013-03-02 05:37:00,
2013-03-01 23:40:00,15.1,10.1,30.36,NNW,345,0.0,2.0,80,0.00,,---,0.00,VWS V14.01,2013-03-02 05:40:00,
2013-03-01 23:43:00,11.0,7.9,30.37,ENE,57,0.0,0.0,87,0.00,,---,0.00,VWS V14.01,2013-03-02 05:43:00,
2013-03-01 23:48:00,11.1,8.2,30.37,ENE,57,0.0,0.0,88,0.00,,---,0.00,VWS V14.01,2013-03-02 05:48:00,
2013-03-01 23:50:00,14.9,10.4,30.36,North,5,0.0,1.0,82,0.00,,---,0.00,VWS V14.01,2013-03-02 05:50:00,
2013-03-01 23:53:00,11.3,8.4,30.37,ENE,57,0.0,0.0,88,0.00,,---,0.00,VWS V14.01,2013-03-02 05:53:00,
2013-03-01 23:58:00,11.3,8.7,30.37,ENE,57,0.0,1.0,89,0.00,,---,0.00,VWS V14.01,2013-03-02 05:58:00,